sat.trackr.live / text

‹ back to catalog

STARLINK-6252

NORAD 56555 · 2023-065BE

PAYLOAD ACTIVE UNKNOWN

§ Identity

Operator
Country
US
Launch date
2023-05-14
Launch site
AFETR
Launch vehicle
Mass (kg)
RCS (m²)

Purposes: comms

External: N2YO · Heavens-Above · Gunter

§ Orbital elements

Epoch: 2026-05-25T01:07:12.169632Z

Period
94.27 min
Inclination
43.0022°
Eccentricity
0.0001723
Mean motion
15.27570633 rev/d
Perigee alt
481.9 km
Apogee alt
484.3 km
Semi-major
6,861.2 km
B*
-2.6959e-5
RAAN
152.0384°
Arg perigee
272.0733°
Mean anomaly
87.9921°
Rev number
16,815

§ Raw data

STARLINK-62521 56555U 23065BE  26145.04666863 -.00001004  00000+0 -26959-4 0  99902 56555  43.0022 152.0384 0001723 272.0733  87.9921 15.27570633168155

JSON: /api/v1/satellites/56555 · /tle

For live sub-satellite position, see the globe view (requires WebGL).

§ Visibility from observer

Set your observer location to see the next 7 days of passes ≥ 10°. The values pass through the URL so the page stays shareable.

No JS? Fill the form by hand. The geolocation button needs JavaScript.